Location: Namasale
(1.5000°N, 32.6167°E)
Time: 22:22:44
(UTC+00:00)

Vanguard 3 - Pass Details

Date: 20 April 2021
Orbit: 507 x 3262 km, 33.4° (Epoch: 16 May)

Event Time Altitude Azimuth Distance (km) Brightness Sun altitude
Rises 17:34:48 0° 226° (SW) 7,097 12.4 -25.7°
Reaches altitude 10° 17:40:11 10° 222° (SW) 5,860 11.8 -27.0°
Maximum altitude 17:56:30 53° 150° (SSE) 2,517 9.2 -30.9°
Enters shadow 17:58:00 51° 129° (SE) 2,451 9.1 -31.3°
